Time,TemperatureF,DewpointF,PressureIn,WindDirection,WindDirectionDegrees,WindSpeedMPH,WindSpeedGustMPH,Humidity,HourlyPrecipIn,Conditions,Clouds,dailyrainin,SoftwareType,DateUTC
2013-04-20 00:01:00,38.9,28.8,29.98,SW,225,0.0,0.4,67,0.00,,,0.00,WUHU216HW,2013-04-20 05:01:00,
2013-04-20 00:06:00,38.5,28.4,29.98,SW,225,0.0,0.2,67,0.00,,,0.00,WUHU216HW,2013-04-20 05:06:00,
2013-04-20 00:11:00,38.5,28.4,29.98,SW,225,0.0,0.0,67,0.00,,,0.00,WUHU216HW,2013-04-20 05:11:00,
2013-04-20 00:16:00,38.2,28.5,29.98,SW,225,0.0,0.0,68,0.00,,,0.00,WUHU216HW,2013-04-20 05:16:00,
2013-04-20 00:21:00,38.0,28.7,29.98,SW,225,0.0,0.0,69,0.00,,,0.00,WUHU216HW,2013-04-20 05:21:00,
2013-04-20 00:26:00,37.8,29.3,29.98,SW,225,0.0,0.0,71,0.00,,,0.00,WUHU216HW,2013-04-20 05:26:00,
2013-04-20 00:31:00,38.0,30.4,29.98,SW,225,0.4,0.4,74,0.00,,,0.00,WUHU216HW,2013-04-20 05:31:00,
2013-04-20 00:36:00,37.8,29.3,29.98,SW,225,0.0,0.4,71,0.00,,,0.00,WUHU216HW,2013-04-20 05:36:00,
2013-04-20 00:41:00,37.8,29.0,29.98,SW,225,0.0,0.4,70,0.00,,,0.00,WUHU216HW,2013-04-20 05:41:00,
2013-04-20 00:46:00,37.8,29.0,29.98,SW,225,0.0,0.2,70,0.00,,,0.00,WUHU216HW,2013-04-20 05:46:00,
2013-04-20 00:51:00,37.6,29.1,29.98,SW,225,0.0,0.2,71,0.00,,,0.00,WUHU216HW,2013-04-20 05:51:00,
2013-04-20 00:56:00,37.4,29.0,29.98,SW,225,0.0,0.0,71,0.00,,,0.00,WUHU216HW,2013-04-20 05:56:00,
2013-04-20 01:01:00,37.4,30.2,29.98,SW,225,0.0,0.4,75,0.00,,,0.00,WUHU216HW,2013-04-20 06:01:00,
2013-04-20 01:06:00,37.4,29.6,29.98,SW,225,0.0,0.4,73,0.00,,,0.00,WUHU216HW,2013-04-20 06:06:00,
2013-04-20 01:11:00,37.3,30.1,29.98,SW,225,0.0,0.2,75,0.00,,,0.00,WUHU216HW,2013-04-20 06:11:00,
2013-04-20 01:16:00,37.4,30.6,29.98,SW,225,0.2,0.4,76,0.00,,,0.00,WUHU216HW,2013-04-20 06:16:00,
2013-04-20 01:21:00,37.4,29.9,29.98,SW,225,0.0,0.4,74,0.00,,,0.00,WUHU216HW,2013-04-20 06:21:00,
2013-04-20 01:26:00,37.4,30.6,29.98,SSE,158,0.2,0.4,76,0.00,,,0.00,WUHU216HW,2013-04-20 06:26:00,
2013-04-20 01:31:00,37.4,29.9,29.98,SSE,158,0.0,0.4,74,0.00,,,0.00,WUHU216HW,2013-04-20 06:31:00,
2013-04-20 01:36:00,37.3,30.4,29.98,SSE,158,0.2,0.2,76,0.00,,,0.00,WUHU216HW,2013-04-20 06:36:00,
2013-04-20 01:41:00,37.3,30.4,29.98,SSE,158,0.0,0.4,76,0.00,,,0.00,WUHU216HW,2013-04-20 06:41:00,
2013-04-20 01:46:00,37.3,30.7,29.98,SSE,158,0.0,0.4,77,0.00,,,0.00,WUHU216HW,2013-04-20 06:46:00,
2013-04-20 01:51:00,37.3,29.7,29.98,SSE,158,0.0,0.0,74,0.00,,,0.00,WUHU216HW,2013-04-20 06:51:00,
2013-04-20 01:56:00,37.1,29.9,29.98,SSE,158,0.0,0.2,75,0.00,,,0.00,WUHU216HW,2013-04-20 06:56:00,
2013-04-20 02:01:00,37.1,29.5,29.98,SSE,158,0.0,0.2,74,0.00,,,0.00,WUHU216HW,2013-04-20 07:01:00,
2013-04-20 02:06:00,36.9,30.1,29.98,SSE,158,0.1,0.2,76,0.00,,,0.00,WUHU216HW,2013-04-20 07:06:00,
2013-04-20 02:11:00,36.7,29.5,29.98,SSE,158,0.0,0.2,75,0.00,,,0.00,WUHU216HW,2013-04-20 07:11:00,
2013-04-20 02:16:00,36.7,29.2,29.98,SSE,158,0.0,0.4,74,0.00,,,0.00,WUHU216HW,2013-04-20 07:16:00,
2013-04-20 02:21:00,36.5,30.0,29.98,SSE,158,0.4,0.4,77,0.00,,,0.00,WUHU216HW,2013-04-20 07:21:00,
2013-04-20 02:26:00,36.5,29.7,29.98,SSE,158,0.0,0.4,76,0.00,,,0.00,WUHU216HW,2013-04-20 07:26:00,
2013-04-20 02:31:00,36.5,29.7,29.98,SSE,158,0.0,0.4,76,0.00,,,0.00,WUHU216HW,2013-04-20 07:31:00,
2013-04-20 02:36:00,36.5,29.3,29.98,SSE,158,0.0,0.0,75,0.00,,,0.00,WUHU216HW,2013-04-20 07:36:00,
2013-04-20 02:41:00,36.4,28.8,29.98,SSE,158,0.0,0.0,74,0.00,,,0.00,WUHU216HW,2013-04-20 07:41:00,
2013-04-20 02:46:00,36.4,28.5,29.98,SSE,158,0.0,0.0,73,0.00,,,0.00,WUHU216HW,2013-04-20 07:46:00,
2013-04-20 02:51:00,36.0,28.4,29.99,SSE,158,0.0,0.0,74,0.00,,,0.00,WUHU216HW,2013-04-20 07:51:00,
2013-04-20 02:56:00,36.0,29.4,29.99,SSE,158,0.0,0.4,77,0.00,,,0.00,WUHU216HW,2013-04-20 07:56:00,
2013-04-20 03:01:00,35.8,29.3,29.99,SSE,158,0.0,0.4,77,0.00,,,0.00,WUHU216HW,2013-04-20 08:01:00,
2013-04-20 03:06:00,35.8,29.3,29.99,SSE,158,0.0,0.0,77,0.00,,,0.00,WUHU216HW,2013-04-20 08:06:00,
2013-04-20 03:12:00,35.8,29.0,29.99,SSE,158,0.0,0.0,76,0.00,,,0.00,WUHU216HW,2013-04-20 08:12:00,
2013-04-20 03:17:00,35.6,28.8,29.99,SSE,158,0.0,0.0,76,0.00,,,0.00,WUHU216HW,2013-04-20 08:17:00,
2013-04-20 03:22:00,35.6,28.8,30.00,North,0,0.7,0.7,76,0.00,,,0.00,WUHU216HW,2013-04-20 08:22:00,
2013-04-20 03:27:00,35.1,28.5,30.00,NNE,14,0.8,1.3,77,0.00,,,0.00,WUHU216HW,2013-04-20 08:27:00,
2013-04-20 03:32:00,34.7,28.2,30.00,NNE,23,0.0,1.3,77,0.00,,,0.00,WUHU216HW,2013-04-20 08:32:00,
2013-04-20 03:37:00,34.6,27.7,30.00,NE,45,0.2,0.4,76,0.00,,,0.00,WUHU216HW,2013-04-20 08:37:00,
2013-04-20 03:42:00,34.6,28.0,30.00,NE,45,0.0,0.2,77,0.00,,,0.00,WUHU216HW,2013-04-20 08:42:00,
2013-04-20 03:47:00,34.4,27.8,30.00,NE,45,0.1,0.2,77,0.00,,,0.00,WUHU216HW,2013-04-20 08:47:00,
2013-04-20 03:52:00,34.2,27.6,30.01,NE,45,0.0,0.2,77,0.00,,,0.00,WUHU216HW,2013-04-20 08:52:00,
2013-04-20 03:57:00,34.2,27.6,30.01,NE,45,0.0,0.0,77,0.00,,,0.00,WUHU216HW,2013-04-20 08:57:00,
2013-04-20 04:02:00,34.2,27.6,30.00,NE,45,0.0,0.0,77,0.00,,,0.00,WUHU216HW,2013-04-20 09:02:00,
2013-04-20 04:07:00,34.0,28.4,30.01,NE,45,0.0,0.0,80,0.00,,,0.00,WUHU216HW,2013-04-20 09:07:00,
2013-04-20 04:12:00,34.0,28.4,30.00,NE,45,0.0,0.0,80,0.00,,,0.00,WUHU216HW,2013-04-20 09:12:00,
2013-04-20 04:17:00,33.8,27.9,30.00,NE,45,0.0,0.0,79,0.00,,,0.00,WUHU216HW,2013-04-20 09:17:00,
2013-04-20 04:22:00,33.8,27.9,30.00,NE,45,0.0,0.0,79,0.00,,,0.00,WUHU216HW,2013-04-20 09:22:00,
2013-04-20 04:27:00,33.8,27.9,30.00,NE,45,0.0,0.0,79,0.00,,,0.00,WUHU216HW,2013-04-20 09:27:00,
2013-04-20 04:32:00,33.8,28.3,30.01,North,0,0.9,1.3,80,0.00,,,0.00,WUHU216HW,2013-04-20 09:32:00,
2013-04-20 04:37:00,33.8,28.3,30.01,North,0,0.7,1.3,80,0.00,,,0.00,WUHU216HW,2013-04-20 09:37:00,
2013-04-20 04:42:00,33.7,28.1,30.01,North,0,0.0,0.9,80,0.00,,,0.00,WUHU216HW,2013-04-20 09:42:00,
2013-04-20 04:47:00,33.7,28.1,30.01,North,0,0.0,0.9,80,0.00,,,0.00,WUHU216HW,2013-04-20 09:47:00,
2013-04-20 04:52:00,33.5,27.9,30.02,North,0,0.0,0.0,80,0.00,,,0.00,WUHU216HW,2013-04-20 09:52:00,
2013-04-20 04:57:00,33.5,27.9,30.02,North,0,0.0,0.0,80,0.00,,,0.00,WUHU216HW,2013-04-20 09:57:00,
2013-04-20 05:02:00,33.5,27.9,30.02,North,0,0.0,0.0,80,0.00,,,0.00,WUHU216HW,2013-04-20 10:02:00,
2013-04-20 05:07:00,33.3,27.8,30.02,North,0,0.0,0.0,80,0.00,,,0.00,WUHU216HW,2013-04-20 10:07:00,
2013-04-20 05:12:00,33.3,27.8,30.03,North,0,0.0,0.0,80,0.00,,,0.00,WUHU216HW,2013-04-20 10:12:00,
2013-04-20 05:17:00,33.1,28.4,30.02,North,0,0.0,0.0,83,0.00,,,0.00,WUHU216HW,2013-04-20 10:17:00,
2013-04-20 05:22:00,33.1,28.4,30.02,North,0,0.0,0.0,83,0.00,,,0.00,WUHU216HW,2013-04-20 10:22:00,
2013-04-20 05:27:00,33.1,27.9,30.03,North,0,0.0,0.0,81,0.00,,,0.00,WUHU216HW,2013-04-20 10:27:00,
2013-04-20 05:32:00,33.1,27.9,30.03,North,0,0.0,0.0,81,0.00,,,0.00,WUHU216HW,2013-04-20 10:32:00,
2013-04-20 05:37:00,33.1,27.9,30.03,North,0,0.0,0.0,81,0.00,,,0.00,WUHU216HW,2013-04-20 10:37:00,
2013-04-20 05:42:00,32.9,27.7,30.03,North,0,0.0,0.0,81,0.00,,,0.00,WUHU216HW,2013-04-20 10:42:00,
2013-04-20 05:47:00,32.9,27.7,30.03,North,0,0.0,0.0,81,0.00,,,0.00,WUHU216HW,2013-04-20 10:47:00,
2013-04-20 05:52:00,32.8,27.5,30.03,North,0,0.0,0.0,81,0.00,,,0.00,WUHU216HW,2013-04-20 10:52:00,
2013-04-20 05:57:00,32.8,27.5,30.03,North,0,0.0,0.0,81,0.00,,,0.00,WUHU216HW,2013-04-20 10:57:00,
2013-04-20 06:02:00,32.8,27.5,30.03,North,0,0.0,0.0,81,0.00,,,0.00,WUHU216HW,2013-04-20 11:02:00,
2013-04-20 06:07:00,32.8,28.4,30.04,North,0,0.0,0.0,84,0.00,,,0.00,WUHU216HW,2013-04-20 11:07:00,
2013-04-20 06:12:00,32.8,27.9,30.04,North,0,0.0,0.0,82,0.00,,,0.00,WUHU216HW,2013-04-20 11:12:00,
2013-04-20 06:17:00,32.8,27.9,30.04,North,0,0.0,0.0,82,0.00,,,0.00,WUHU216HW,2013-04-20 11:17:00,
2013-04-20 06:22:00,32.8,27.5,30.04,North,0,0.0,0.0,81,0.00,,,0.00,WUHU216HW,2013-04-20 11:22:00,
2013-04-20 06:27:00,32.8,27.5,30.04,North,0,0.0,0.0,81,0.00,,,0.00,WUHU216HW,2013-04-20 11:27:00,
2013-04-20 06:32:00,32.8,27.5,30.04,North,0,0.0,0.0,81,0.00,,,0.00,WUHU216HW,2013-04-20 11:32:00,
2013-04-20 06:37:00,32.8,27.5,30.05,North,0,0.0,0.0,81,0.00,,,0.00,WUHU216HW,2013-04-20 11:37:00,
2013-04-20 06:42:00,32.9,27.7,30.05,North,0,0.0,0.0,81,0.00,,,0.00,WUHU216HW,2013-04-20 11:42:00,
2013-04-20 06:47:00,32.9,28.0,30.04,North,0,0.0,0.0,82,0.00,,,0.00,WUHU216HW,2013-04-20 11:47:00,
2013-04-20 06:52:00,33.1,29.1,30.05,North,0,0.0,0.0,85,0.00,,,0.00,WUHU216HW,2013-04-20 11:52:00,
2013-04-20 06:57:00,33.5,29.3,30.05,North,0,0.0,0.0,85,0.00,,,0.00,WUHU216HW,2013-04-20 11:57:00,
2013-04-20 07:02:00,33.8,29.2,30.05,North,0,0.0,0.0,83,0.00,,,0.00,WUHU216HW,2013-04-20 12:02:00,
2013-04-20 07:07:00,34.2,29.8,30.05,North,0,0.0,0.0,84,0.00,,,0.00,WUHU216HW,2013-04-20 12:07:00,
2013-04-20 07:12:00,34.6,30.2,30.05,North,0,0.0,0.0,84,0.00,,,0.00,WUHU216HW,2013-04-20 12:12:00,
2013-04-20 07:17:00,34.9,30.5,30.06,North,0,0.0,0.0,84,0.00,,,0.00,WUHU216HW,2013-04-20 12:17:00,
2013-04-20 07:22:00,35.5,30.8,30.06,North,0,0.0,0.0,83,0.00,,,0.00,WUHU216HW,2013-04-20 12:22:00,
2013-04-20 07:27:00,35.8,31.2,30.06,North,0,0.0,0.0,83,0.00,,,0.00,WUHU216HW,2013-04-20 12:27:00,
2013-04-20 07:32:00,36.5,31.9,30.06,North,0,0.0,0.0,83,0.00,,,0.00,WUHU216HW,2013-04-20 12:32:00,
2013-04-20 07:37:00,37.1,32.4,30.06,North,0,0.0,0.0,83,0.00,,,0.00,WUHU216HW,2013-04-20 12:37:00,
2013-04-20 07:42:00,37.8,32.8,30.06,North,0,0.0,0.0,82,0.00,,,0.00,WUHU216HW,2013-04-20 12:42:00,
2013-04-20 07:47:00,39.1,34.4,30.06,North,0,0.0,0.0,83,0.00,,,0.00,WUHU216HW,2013-04-20 12:47:00,
2013-04-20 07:52:00,40.5,34.5,30.06,North,0,0.0,0.4,79,0.00,,,0.00,WUHU216HW,2013-04-20 12:52:00,
2013-04-20 07:57:00,42.3,35.6,30.06,NE,45,0.2,0.4,77,0.00,,,0.00,WUHU216HW,2013-04-20 12:57:00,
2013-04-20 08:02:00,44.3,33.2,30.06,WSW,248,0.4,0.4,65,0.00,,,0.00,WUHU216HW,2013-04-20 13:02:00,
2013-04-20 08:07:00,45.2,34.1,30.06,SE,135,0.4,1.1,65,0.00,,,0.00,WUHU216HW,2013-04-20 13:07:00,
2013-04-20 08:12:00,45.7,33.4,30.06,SE,135,0.4,1.1,62,0.00,,,0.00,WUHU216HW,2013-04-20 13:12:00,
2013-04-20 08:17:00,46.1,32.5,30.07,ESE,114,1.0,3.4,59,0.00,,,0.00,WUHU216HW,2013-04-20 13:17:00,
2013-04-20 08:22:00,46.3,33.1,30.07,South,175,0.3,3.4,60,0.00,,,0.00,WUHU216HW,2013-04-20 13:22:00,
2013-04-20 08:27:00,46.3,32.2,30.07,SE,135,1.1,2.7,58,0.00,,,0.00,WUHU216HW,2013-04-20 13:27:00,
2013-04-20 08:32:00,46.3,32.2,30.07,SE,130,1.2,2.9,58,0.00,,,0.00,WUHU216HW,2013-04-20 13:32:00,
2013-04-20 08:37:00,46.6,32.1,30.07,SE,135,0.4,2.9,57,0.00,,,0.00,WUHU216HW,2013-04-20 13:37:00,
2013-04-20 08:42:00,47.2,32.7,30.07,SW,225,1.1,1.8,57,0.00,,,0.00,WUHU216HW,2013-04-20 13:42:00,
2013-04-20 08:47:00,47.9,32.4,30.08,SE,144,1.0,2.2,55,0.00,,,0.00,WUHU216HW,2013-04-20 13:47:00,
2013-04-20 08:52:00,48.2,33.7,30.08,SE,126,1.2,2.5,57,0.00,,,0.00,WUHU216HW,2013-04-20 13:52:00,
2013-04-20 08:57:00,48.6,32.7,30.08,SE,143,1.7,4.3,54,0.00,,,0.00,WUHU216HW,2013-04-20 13:57:00,
2013-04-20 09:02:00,48.6,32.7,30.08,SE,135,3.4,4.3,54,0.00,,,0.00,WUHU216HW,2013-04-20 14:02:00,
2013-04-20 09:07:00,49.1,33.7,30.08,ESE,113,0.9,3.4,55,0.00,,,0.00,WUHU216HW,2013-04-20 14:07:00,
2013-04-20 09:12:00,49.5,33.5,30.09,SSW,195,0.6,3.4,54,0.00,,,0.00,WUHU216HW,2013-04-20 14:12:00,
2013-04-20 09:17:00,49.7,33.7,30.08,SE,135,0.9,2.9,54,0.00,,,0.00,WUHU216HW,2013-04-20 14:17:00,
2013-04-20 09:22:00,49.9,33.8,30.08,SE,139,0.7,2.5,54,0.00,,,0.00,WUHU216HW,2013-04-20 14:22:00,
2013-04-20 09:27:00,49.9,33.4,30.09,SE,143,0.7,2.5,53,0.00,,,0.00,WUHU216HW,2013-04-20 14:27:00,
2013-04-20 09:32:00,50.0,34.0,30.09,SE,128,1.1,3.1,54,0.00,,,0.00,WUHU216HW,2013-04-20 14:32:00,
2013-04-20 09:37:00,50.8,35.1,30.09,ESE,115,1.3,3.1,55,0.00,,,0.00,WUHU216HW,2013-04-20 14:37:00,
2013-04-20 09:42:00,51.3,34.8,30.09,East,94,0.9,2.7,53,0.00,,,0.00,WUHU216HW,2013-04-20 14:42:00,
2013-04-20 09:47:00,51.8,33.3,30.09,ESE,120,1.1,2.5,49,0.00,,,0.00,WUHU216HW,2013-04-20 14:47:00,
2013-04-20 09:52:00,51.7,34.6,30.09,NNE,23,1.1,3.1,52,0.00,,,0.00,WUHU216HW,2013-04-20 14:52:00,
2013-04-20 09:57:00,52.0,35.4,30.09,ENE,75,1.0,3.1,53,0.00,,,0.00,WUHU216HW,2013-04-20 14:57:00,
2013-04-20 10:02:00,52.6,34.5,30.09,ESE,113,2.5,3.4,50,0.00,,,0.00,WUHU216HW,2013-04-20 15:02:00,
2013-04-20 10:07:00,52.6,35.4,30.09,ENE,68,1.1,3.4,52,0.00,,,0.00,WUHU216HW,2013-04-20 15:07:00,
2013-04-20 10:12:00,52.7,35.1,30.09,East,90,2.0,3.4,51,0.00,,,0.00,WUHU216HW,2013-04-20 15:12:00,
2013-04-20 10:17:00,53.5,36.7,30.09,ENE,64,0.3,3.4,53,0.00,,,0.00,WUHU216HW,2013-04-20 15:17:00,
2013-04-20 10:22:00,53.8,35.1,30.10,ESE,113,2.2,2.2,49,0.00,,,0.00,WUHU216HW,2013-04-20 15:22:00,
2013-04-20 10:27:00,53.3,35.1,30.10,SE,126,1.7,2.7,50,0.00,,,0.00,WUHU216HW,2013-04-20 15:27:00,
2013-04-20 10:32:00,52.9,34.3,30.10,ESE,104,1.5,2.7,49,0.00,,,0.00,WUHU216HW,2013-04-20 15:32:00,
2013-04-20 10:37:00,53.3,35.1,30.10,ESE,113,1.1,2.5,50,0.00,,,0.00,WUHU216HW,2013-04-20 15:37:00,
2013-04-20 10:42:00,53.6,35.9,30.10,North,3,1.1,3.1,51,0.00,,,0.00,WUHU216HW,2013-04-20 15:42:00,
2013-04-20 10:47:00,54.4,35.0,30.11,ESE,113,2.0,3.1,48,0.00,,,0.00,WUHU216HW,2013-04-20 15:47:00,
2013-04-20 10:52:00,54.5,36.3,30.10,ESE,113,2.2,2.2,50,0.00,,,0.00,WUHU216HW,2013-04-20 15:52:00,
2013-04-20 10:57:00,55.1,36.7,30.10,SE,130,0.6,2.2,50,0.00,,,0.00,WUHU216HW,2013-04-20 15:57:00,
2013-04-20 11:02:00,55.6,36.7,30.10,SE,141,0.7,2.2,49,0.00,,,0.00,WUHU216HW,2013-04-20 16:02:00,
2013-04-20 11:07:00,56.0,37.6,30.11,SE,135,0.5,2.5,50,0.00,,,0.00,WUHU216HW,2013-04-20 16:07:00,
2013-04-20 11:12:00,56.5,37.6,30.11,South,180,1.1,2.9,49,0.00,,,0.00,WUHU216HW,2013-04-20 16:12:00,
2013-04-20 11:17:00,56.9,36.3,30.11,SE,128,1.3,2.9,46,0.00,,,0.00,WUHU216HW,2013-04-20 16:17:00,
2013-04-20 11:22:00,57.1,36.4,30.10,NNE,27,0.8,2.0,46,0.00,,,0.00,WUHU216HW,2013-04-20 16:22:00,
2013-04-20 11:27:00,57.6,35.7,30.10,ESE,118,1.4,1.8,44,0.00,,,0.00,WUHU216HW,2013-04-20 16:27:00,
2013-04-20 11:32:00,57.4,37.4,30.10,SE,124,0.8,2.0,47,0.00,,,0.00,WUHU216HW,2013-04-20 16:32:00,
2013-04-20 11:37:00,57.8,37.6,30.10,North,3,0.7,2.5,47,0.00,,,0.00,WUHU216HW,2013-04-20 16:37:00,
2013-04-20 11:42:00,57.8,37.6,30.10,SE,131,1.8,3.1,47,0.00,,,0.00,WUHU216HW,2013-04-20 16:42:00,
2013-04-20 11:47:00,58.3,38.2,30.10,SE,129,0.9,3.8,47,0.00,,,0.00,WUHU216HW,2013-04-20 16:47:00,
2013-04-20 11:52:00,59.4,38.5,30.09,South,170,1.4,3.8,46,0.00,,,0.00,WUHU216HW,2013-04-20 16:52:00,
2013-04-20 11:57:00,61.0,38.8,30.09,ESE,113,2.5,2.5,44,0.00,,,0.00,WUHU216HW,2013-04-20 16:57:00,
2013-04-20 12:02:00,61.6,38.2,30.09,SE,131,0.9,2.9,42,0.00,,,0.00,WUHU216HW,2013-04-20 17:02:00,
2013-04-20 12:07:00,62.1,38.6,30.09,SW,225,1.1,3.4,42,0.00,,,0.00,WUHU216HW,2013-04-20 17:07:00,
2013-04-20 12:12:00,62.3,36.9,30.09,ENE,68,1.8,3.4,39,0.00,,,0.00,WUHU216HW,2013-04-20 17:12:00,
2013-04-20 12:17:00,60.8,35.6,30.09,ESE,113,2.0,4.0,39,0.00,,,0.00,WUHU216HW,2013-04-20 17:17:00,
2013-04-20 12:22:00,60.8,37.5,30.09,SSE,158,3.1,4.0,42,0.00,,,0.00,WUHU216HW,2013-04-20 17:22:00,
2013-04-20 12:27:00,61.0,37.1,30.09,ESE,110,2.1,3.6,41,0.00,,,0.00,WUHU216HW,2013-04-20 17:27:00,
2013-04-20 12:32:00,61.6,38.7,30.09,SSE,158,1.8,3.6,43,0.00,,,0.00,WUHU216HW,2013-04-20 17:32:00,
2013-04-20 12:37:00,62.1,38.1,30.08,ESE,113,2.5,4.5,41,0.00,,,0.00,WUHU216HW,2013-04-20 17:37:00,
2013-04-20 12:42:00,62.5,39.5,30.08,SSW,203,1.1,4.5,43,0.00,,,0.00,WUHU216HW,2013-04-20 17:42:00,
2013-04-20 12:47:00,62.3,38.8,30.08,SSE,161,1.1,4.0,42,0.00,,,0.00,WUHU216HW,2013-04-20 17:47:00,
2013-04-20 12:52:00,62.6,38.0,30.08,SE,143,2.9,4.0,40,0.00,,,0.00,WUHU216HW,2013-04-20 17:52:00,
2013-04-20 12:57:00,62.8,38.7,30.08,WSW,248,1.1,4.3,41,0.00,,,0.00,WUHU216HW,2013-04-20 17:57:00,
2013-04-20 13:02:00,62.8,38.2,30.08,ESE,123,2.3,4.3,40,0.00,,,0.00,WUHU216HW,2013-04-20 18:02:00,
2013-04-20 13:07:00,62.3,35.5,30.07,SE,145,2.7,3.8,37,0.00,,,0.00,WUHU216HW,2013-04-20 18:07:00,
2013-04-20 13:12:00,61.9,38.5,30.07,North,7,1.5,3.8,42,0.00,,,0.00,WUHU216HW,2013-04-20 18:12:00,
2013-04-20 13:17:00,62.3,37.6,30.07,SE,135,3.4,4.3,40,0.00,,,0.00,WUHU216HW,2013-04-20 18:17:00,
2013-04-20 13:22:00,63.0,36.9,30.07,South,191,1.9,4.3,38,0.00,,,0.00,WUHU216HW,2013-04-20 18:22:00,
2013-04-20 13:27:00,63.0,38.9,30.06,SSE,152,1.4,4.0,41,0.00,,,0.00,WUHU216HW,2013-04-20 18:27:00,
2013-04-20 13:32:00,63.4,37.2,30.06,ESE,121,1.9,3.6,38,0.00,,,0.00,WUHU216HW,2013-04-20 18:32:00,
2013-04-20 13:37:00,63.2,37.7,30.06,ESE,102,2.0,4.0,39,0.00,,,0.00,WUHU216HW,2013-04-20 18:37:00,
2013-04-20 13:42:00,63.5,40.0,30.06,SE,137,2.3,4.7,42,0.00,,,0.00,WUHU216HW,2013-04-20 18:42:00,
2013-04-20 13:47:00,64.1,39.2,30.06,SE,135,3.4,4.7,40,0.00,,,0.00,WUHU216HW,2013-04-20 18:47:00,
2013-04-20 13:52:00,64.4,38.9,30.06,SW,225,1.6,4.7,39,0.00,,,0.00,WUHU216HW,2013-04-20 18:52:00,
2013-04-20 13:57:00,64.8,37.1,30.06,SE,135,2.2,3.6,36,0.00,,,0.00,WUHU216HW,2013-04-20 18:57:00,
2013-04-20 14:02:00,64.1,39.2,30.06,SSE,157,1.7,3.6,40,0.00,,,0.00,WUHU216HW,2013-04-20 19:02:00,
2013-04-20 14:07:00,64.4,36.7,30.06,SE,129,1.6,3.6,36,0.00,,,0.00,WUHU216HW,2013-04-20 19:07:00,
2013-04-20 14:12:00,64.4,37.4,30.05,North,356,1.9,3.8,37,0.00,,,0.00,WUHU216HW,2013-04-20 19:12:00,
2013-04-20 14:17:00,64.8,38.5,30.05,SE,125,2.2,3.8,38,0.00,,,0.00,WUHU216HW,2013-04-20 19:17:00,
2013-04-20 14:22:00,65.2,38.8,30.05,South,191,1.5,3.6,38,0.00,,,0.00,WUHU216HW,2013-04-20 19:22:00,
2013-04-20 14:27:00,65.3,38.3,30.05,SSW,203,1.3,3.1,37,0.00,,,0.00,WUHU216HW,2013-04-20 19:27:00,
2013-04-20 14:32:00,65.5,39.2,30.05,SW,214,4.2,5.4,38,0.00,,,0.00,WUHU216HW,2013-04-20 19:32:00,
2013-04-20 14:37:00,65.2,38.1,30.05,NW,315,3.4,5.4,37,0.00,,,0.00,WUHU216HW,2013-04-20 19:37:00,
2013-04-20 14:42:00,65.3,38.3,30.05,SSW,203,3.8,4.7,37,0.00,,,0.00,WUHU216HW,2013-04-20 19:42:00,
2013-04-20 14:48:00,65.7,35.7,30.04,ESE,122,2.3,4.7,33,0.00,,,0.00,WUHU216HW,2013-04-20 19:48:00,
2013-04-20 14:53:00,65.2,35.9,30.04,ESE,105,1.1,3.8,34,0.00,,,0.00,WUHU216HW,2013-04-20 19:53:00,
2013-04-20 14:58:00,65.9,37.3,30.04,SE,136,2.2,3.1,35,0.00,,,0.00,WUHU216HW,2013-04-20 19:58:00,
2013-04-20 15:03:00,66.1,36.7,30.04,SE,134,0.5,5.4,34,0.00,,,0.00,WUHU216HW,2013-04-20 20:03:00,
2013-04-20 15:08:00,66.4,37.8,30.04,SE,135,2.0,5.4,35,0.00,,,0.00,WUHU216HW,2013-04-20 20:08:00,
2013-04-20 15:13:00,66.8,39.5,30.04,South,180,1.2,2.5,37,0.00,,,0.00,WUHU216HW,2013-04-20 20:13:00,
2013-04-20 15:18:00,67.3,40.0,30.04,SSW,207,2.1,5.4,37,0.00,,,0.00,WUHU216HW,2013-04-20 20:18:00,
2013-04-20 15:23:00,66.8,38.1,30.03,SE,135,1.1,5.4,35,0.00,,,0.00,WUHU216HW,2013-04-20 20:23:00,
2013-04-20 15:28:00,66.4,37.8,30.03,SW,225,2.2,3.8,35,0.00,,,0.00,WUHU216HW,2013-04-20 20:28:00,
2013-04-20 15:33:00,66.6,36.5,30.03,West,270,2.5,3.8,33,0.00,,,0.00,WUHU216HW,2013-04-20 20:33:00,
2013-04-20 15:38:00,66.6,38.6,30.03,SSW,206,2.9,4.5,36,0.00,,,0.00,WUHU216HW,2013-04-20 20:38:00,
2013-04-20 15:43:00,66.6,37.2,30.02,SSE,154,1.5,4.5,34,0.00,,,0.00,WUHU216HW,2013-04-20 20:43:00,
2013-04-20 15:48:00,67.0,37.5,30.02,SW,217,1.4,4.0,34,0.00,,,0.00,WUHU216HW,2013-04-20 20:48:00,
2013-04-20 15:53:00,66.8,38.8,30.02,NNE,23,0.9,2.9,36,0.00,,,0.00,WUHU216HW,2013-04-20 20:53:00,
2013-04-20 15:58:00,66.6,37.2,30.02,SE,131,2.1,3.4,34,0.00,,,0.00,WUHU216HW,2013-04-20 20:58:00,
2013-04-20 16:03:00,66.6,39.3,30.02,SSW,203,1.3,3.4,37,0.00,,,0.00,WUHU216HW,2013-04-20 21:03:00,
2013-04-20 16:08:00,66.4,37.8,30.02,East,98,0.7,2.7,35,0.00,,,0.00,WUHU216HW,2013-04-20 21:08:00,
2013-04-20 16:13:00,66.2,39.1,30.02,ESE,113,1.3,2.7,37,0.00,,,0.00,WUHU216HW,2013-04-20 21:13:00,
2013-04-20 16:18:00,66.1,38.9,30.02,ESE,122,1.9,3.4,37,0.00,,,0.00,WUHU216HW,2013-04-20 21:18:00,
2013-04-20 16:23:00,65.9,37.3,30.01,SE,136,1.0,3.4,35,0.00,,,0.00,WUHU216HW,2013-04-20 21:23:00,
2013-04-20 16:28:00,65.9,37.3,30.01,East,90,1.8,2.5,35,0.00,,,0.00,WUHU216HW,2013-04-20 21:28:00,
2013-04-20 16:33:00,65.9,38.0,30.01,SSE,158,1.8,2.5,36,0.00,,,0.00,WUHU216HW,2013-04-20 21:33:00,
2013-04-20 16:38:00,66.1,36.7,30.01,SSE,158,2.5,2.9,34,0.00,,,0.00,WUHU216HW,2013-04-20 21:38:00,
2013-04-20 16:43:00,65.9,38.7,30.01,ESE,104,2.0,2.9,37,0.00,,,0.00,WUHU216HW,2013-04-20 21:43:00,
2013-04-20 16:48:00,65.9,38.7,30.01,SE,124,0.8,2.5,37,0.00,,,0.00,WUHU216HW,2013-04-20 21:48:00,
2013-04-20 16:53:00,65.9,38.7,30.01,SE,135,0.7,2.5,37,0.00,,,0.00,WUHU216HW,2013-04-20 21:53:00,
2013-04-20 16:58:00,65.9,36.5,30.01,ESE,113,1.3,2.7,34,0.00,,,0.00,WUHU216HW,2013-04-20 21:58:00,
2013-04-20 17:03:00,65.7,38.6,30.01,SSE,150,1.2,2.7,37,0.00,,,0.00,WUHU216HW,2013-04-20 22:03:00,
2013-04-20 17:08:00,65.3,37.5,30.01,SE,130,1.7,2.7,36,0.00,,,0.00,WUHU216HW,2013-04-20 22:08:00,
2013-04-20 17:13:00,65.3,37.5,30.00,SSE,158,1.1,2.7,36,0.00,,,0.00,WUHU216HW,2013-04-20 22:13:00,
2013-04-20 17:18:00,65.5,38.4,30.01,ESE,115,0.5,1.8,37,0.00,,,0.00,WUHU216HW,2013-04-20 22:18:00,
2013-04-20 17:23:00,65.3,36.1,30.00,SE,124,1.4,2.5,34,0.00,,,0.00,WUHU216HW,2013-04-20 22:23:00,
2013-04-20 17:28:00,65.2,37.4,30.00,SSW,203,0.9,2.5,36,0.00,,,0.00,WUHU216HW,2013-04-20 22:28:00,
2013-04-20 17:33:00,65.2,38.1,30.00,NNE,23,2.2,2.2,37,0.00,,,0.00,WUHU216HW,2013-04-20 22:33:00,
2013-04-20 17:38:00,65.0,37.9,30.00,SE,133,2.2,4.5,37,0.00,,,0.00,WUHU216HW,2013-04-20 22:38:00,
2013-04-20 17:43:00,64.6,38.4,30.00,ESE,113,1.8,4.5,38,0.00,,,0.00,WUHU216HW,2013-04-20 22:43:00,
2013-04-20 17:48:00,64.4,36.7,30.00,East,90,2.2,3.1,36,0.00,,,0.00,WUHU216HW,2013-04-20 22:48:00,
2013-04-20 17:53:00,64.3,38.0,30.00,ESE,114,1.3,3.1,38,0.00,,,0.00,WUHU216HW,2013-04-20 22:53:00,
2013-04-20 17:58:00,64.4,37.4,30.00,ESE,113,2.5,3.8,37,0.00,,,0.00,WUHU216HW,2013-04-20 22:58:00,
2013-04-20 18:03:00,64.4,38.2,30.00,SE,135,1.8,3.8,38,0.00,,,0.00,WUHU216HW,2013-04-20 23:03:00,
2013-04-20 18:08:00,64.8,39.3,30.00,ESE,113,0.7,2.5,39,0.00,,,0.00,WUHU216HW,2013-04-20 23:08:00,
2013-04-20 18:13:00,64.6,37.6,30.00,ESE,113,1.1,2.2,37,0.00,,,0.00,WUHU216HW,2013-04-20 23:13:00,
2013-04-20 18:18:00,64.6,39.1,30.00,SSE,158,1.1,3.1,39,0.00,,,0.00,WUHU216HW,2013-04-20 23:18:00,
2013-04-20 18:23:00,64.4,38.2,30.00,SSE,158,2.5,3.8,38,0.00,,,0.00,WUHU216HW,2013-04-20 23:23:00,
2013-04-20 18:28:00,64.1,38.5,30.00,SE,135,2.5,3.8,39,0.00,,,0.00,WUHU216HW,2013-04-20 23:28:00,
2013-04-20 18:33:00,64.1,38.5,30.00,ESE,118,1.9,2.7,39,0.00,,,0.00,WUHU216HW,2013-04-20 23:33:00,
2013-04-20 18:38:00,63.7,39.5,30.00,SE,126,1.1,2.7,41,0.00,,,0.00,WUHU216HW,2013-04-20 23:38:00,
2013-04-20 18:43:00,63.7,39.0,30.00,ESE,113,0.9,2.0,40,0.00,,,0.00,WUHU216HW,2013-04-20 23:43:00,
2013-04-20 18:48:00,63.5,38.8,30.00,ESE,115,1.4,2.9,40,0.00,,,0.00,WUHU216HW,2013-04-20 23:48:00,
2013-04-20 18:53:00,63.2,38.4,30.00,ESE,111,0.9,2.9,40,0.00,,,0.00,WUHU216HW,2013-04-20 23:53:00,
2013-04-20 18:58:00,63.0,38.9,30.00,East,99,1.0,1.8,41,0.00,,,0.00,WUHU216HW,2013-04-20 23:58:00,
2013-04-20 19:03:00,62.8,38.2,30.00,SE,135,1.6,2.7,40,0.00,,,0.00,WUHU216HW,2013-04-21 00:03:00,
2013-04-20 19:08:00,62.5,39.0,30.00,ESE,113,0.9,2.7,42,0.00,,,0.00,WUHU216HW,2013-04-21 00:08:00,
2013-04-20 19:13:00,62.3,38.8,30.00,East,90,0.9,2.5,42,0.00,,,0.00,WUHU216HW,2013-04-21 00:13:00,
2013-04-20 19:18:00,61.9,38.5,30.01,SE,135,1.3,2.5,42,0.00,,,0.00,WUHU216HW,2013-04-21 00:18:00,
2013-04-20 19:23:00,61.7,38.9,30.00,SE,135,0.5,2.2,43,0.00,,,0.00,WUHU216HW,2013-04-21 00:23:00,
2013-04-20 19:28:00,61.6,38.2,30.01,ESE,113,1.1,1.8,42,0.00,,,0.00,WUHU216HW,2013-04-21 00:28:00,
2013-04-20 19:33:00,61.4,38.6,30.01,SE,135,0.7,1.1,43,0.00,,,0.00,WUHU216HW,2013-04-21 00:33:00,
2013-04-20 19:38:00,61.2,39.0,30.01,ESE,115,0.9,1.1,44,0.00,,,0.00,WUHU216HW,2013-04-21 00:38:00,
2013-04-20 19:43:00,60.8,38.7,30.01,ESE,113,0.7,1.1,44,0.00,,,0.00,WUHU216HW,2013-04-21 00:43:00,
2013-04-20 19:48:00,60.5,38.9,30.02,ESE,103,0.2,1.1,45,0.00,,,0.00,WUHU216HW,2013-04-21 00:48:00,
2013-04-20 19:53:00,60.1,38.6,30.02,ESE,113,0.5,1.1,45,0.00,,,0.00,WUHU216HW,2013-04-21 00:53:00,
2013-04-20 19:58:00,59.9,38.4,30.02,ESE,113,0.7,1.1,45,0.00,,,0.00,WUHU216HW,2013-04-21 00:58:00,
2013-04-20 20:03:00,59.8,38.9,30.03,SE,135,0.6,1.6,46,0.00,,,0.00,WUHU216HW,2013-04-21 01:03:00,
2013-04-20 20:08:00,59.6,38.7,30.03,ESE,113,1.1,1.6,46,0.00,,,0.00,WUHU216HW,2013-04-21 01:08:00,
2013-04-20 20:13:00,59.2,39.0,30.03,SE,135,1.1,1.1,47,0.00,,,0.00,WUHU216HW,2013-04-21 01:13:00,
2013-04-20 20:18:00,59.0,38.8,30.03,ESE,113,1.6,1.6,47,0.00,,,0.00,WUHU216HW,2013-04-21 01:18:00,
2013-04-20 20:23:00,58.9,38.6,30.04,ESE,113,0.7,1.6,47,0.00,,,0.00,WUHU216HW,2013-04-21 01:23:00,
2013-04-20 20:28:00,58.7,38.4,30.04,ESE,113,0.9,1.1,47,0.00,,,0.00,WUHU216HW,2013-04-21 01:28:00,
2013-04-20 20:33:00,58.7,39.1,30.04,ESE,113,0.9,1.8,48,0.00,,,0.00,WUHU216HW,2013-04-21 01:33:00,
2013-04-20 20:38:00,58.5,38.9,30.04,ESE,113,0.9,1.8,48,0.00,,,0.00,WUHU216HW,2013-04-21 01:38:00,
2013-04-20 20:43:00,58.3,38.7,30.04,ESE,113,0.5,1.1,48,0.00,,,0.00,WUHU216HW,2013-04-21 01:43:00,
2013-04-20 20:48:00,58.0,38.3,30.05,SE,134,0.5,1.1,48,0.00,,,0.00,WUHU216HW,2013-04-21 01:48:00,
2013-04-20 20:53:00,57.8,38.3,30.05,ESE,113,0.7,0.9,48,0.00,,,0.00,WUHU216HW,2013-04-21 01:53:00,
2013-04-20 20:58:00,57.6,38.6,30.05,ESE,113,1.1,1.6,49,0.00,,,0.00,WUHU216HW,2013-04-21 01:58:00,
2013-04-20 21:03:00,57.2,38.9,30.05,ESE,113,0.7,1.6,50,0.00,,,0.00,WUHU216HW,2013-04-21 02:03:00,
2013-04-20 21:08:00,57.2,38.9,30.06,ESE,121,0.6,1.1,50,0.00,,,0.00,WUHU216HW,2013-04-21 02:08:00,
2013-04-20 21:13:00,57.1,38.7,30.06,ESE,113,0.9,1.1,50,0.00,,,0.00,WUHU216HW,2013-04-21 02:13:00,
2013-04-20 21:18:00,56.9,38.5,30.06,ESE,113,1.1,1.1,50,0.00,,,0.00,WUHU216HW,2013-04-21 02:18:00,
2013-04-20 21:23:00,56.7,38.3,30.06,SE,135,0.5,1.1,50,0.00,,,0.00,WUHU216HW,2013-04-21 02:23:00,
2013-04-20 21:28:00,56.7,38.8,30.06,SE,132,0.5,1.1,51,0.00,,,0.00,WUHU216HW,2013-04-21 02:28:00,
2013-04-20 21:33:00,56.5,38.6,30.06,SE,135,0.3,1.1,51,0.00,,,0.00,WUHU216HW,2013-04-21 02:33:00,
2013-04-20 21:38:00,56.5,38.6,30.06,SE,135,0.9,1.1,51,0.00,,,0.00,WUHU216HW,2013-04-21 02:38:00,
2013-04-20 21:43:00,56.3,38.4,30.07,ESE,113,0.7,1.1,51,0.00,,,0.00,WUHU216HW,2013-04-21 02:43:00,
2013-04-20 21:48:00,56.3,38.4,30.07,SE,135,0.9,0.9,51,0.00,,,0.00,WUHU216HW,2013-04-21 02:48:00,
2013-04-20 21:53:00,56.2,38.3,30.07,ESE,113,0.7,1.1,51,0.00,,,0.00,WUHU216HW,2013-04-21 02:53:00,
2013-04-20 21:58:00,56.2,37.8,30.07,ESE,113,0.5,1.3,50,0.00,,,0.00,WUHU216HW,2013-04-21 02:58:00,
2013-04-20 22:03:00,56.2,37.8,30.08,ESE,122,0.8,1.3,50,0.00,,,0.00,WUHU216HW,2013-04-21 03:03:00,
2013-04-20 22:08:00,56.0,37.6,30.08,ESE,113,1.1,1.3,50,0.00,,,0.00,WUHU216HW,2013-04-21 03:08:00,
2013-04-20 22:13:00,56.2,37.8,30.08,ESE,113,0.6,1.3,50,0.00,,,0.00,WUHU216HW,2013-04-21 03:13:00,
2013-04-20 22:18:00,56.2,37.8,30.08,ESE,113,0.9,1.6,50,0.00,,,0.00,WUHU216HW,2013-04-21 03:18:00,
2013-04-20 22:23:00,56.2,37.8,30.08,SE,135,1.1,1.8,50,0.00,,,0.00,WUHU216HW,2013-04-21 03:23:00,
2013-04-20 22:28:00,56.0,37.6,30.08,ESE,113,0.5,1.8,50,0.00,,,0.00,WUHU216HW,2013-04-21 03:28:00,
2013-04-20 22:33:00,55.8,37.9,30.08,SE,128,0.6,1.1,51,0.00,,,0.00,WUHU216HW,2013-04-21 03:33:00,
2013-04-20 22:39:00,55.6,37.7,30.08,ESE,113,0.4,1.1,51,0.00,,,0.00,WUHU216HW,2013-04-21 03:39:00,
2013-04-20 22:44:00,55.4,37.5,30.08,ESE,113,0.4,1.1,51,0.00,,,0.00,WUHU216HW,2013-04-21 03:44:00,
2013-04-20 22:49:00,55.3,37.4,30.08,SE,135,0.4,1.1,51,0.00,,,0.00,WUHU216HW,2013-04-21 03:49:00,
2013-04-20 22:54:00,55.1,37.7,30.08,ESE,113,0.5,1.1,52,0.00,,,0.00,WUHU216HW,2013-04-21 03:54:00,
2013-04-20 22:59:00,55.1,37.7,30.08,SSE,158,0.5,1.1,52,0.00,,,0.00,WUHU216HW,2013-04-21 03:59:00,
2013-04-20 23:01:00,54.9,37.5,30.08,East,90,0.4,1.1,52,0.00,,,0.00,WUHU216HW,2013-04-21 04:01:00,
2013-04-20 23:06:00,54.7,37.4,30.08,ESE,113,0.7,1.1,52,0.00,,,0.00,WUHU216HW,2013-04-21 04:06:00,
2013-04-20 23:11:00,54.7,37.8,30.08,ESE,113,0.7,1.1,53,0.00,,,0.00,WUHU216HW,2013-04-21 04:11:00,
2013-04-20 23:16:00,54.4,37.5,30.08,ESE,121,0.9,1.1,53,0.00,,,0.00,WUHU216HW,2013-04-21 04:16:00,
2013-04-20 23:21:00,54.4,38.0,30.08,ESE,113,1.1,1.1,54,0.00,,,0.00,WUHU216HW,2013-04-21 04:21:00,
2013-04-20 23:26:00,54.2,37.8,30.08,ESE,113,0.7,1.1,54,0.00,,,0.00,WUHU216HW,2013-04-21 04:26:00,
2013-04-20 23:31:00,54.0,37.6,30.08,ESE,113,0.6,1.1,54,0.00,,,0.00,WUHU216HW,2013-04-21 04:31:00,
2013-04-20 23:36:00,53.8,37.5,30.08,ESE,113,0.7,1.1,54,0.00,,,0.00,WUHU216HW,2013-04-21 04:36:00,
2013-04-20 23:41:00,53.6,37.8,30.08,ESE,121,0.9,1.1,55,0.00,,,0.00,WUHU216HW,2013-04-21 04:41:00,
2013-04-20 23:46:00,53.6,37.8,30.08,ESE,113,1.6,1.6,55,0.00,,,0.00,WUHU216HW,2013-04-21 04:46:00,
2013-04-20 23:51:00,53.5,37.6,30.08,ESE,113,1.1,1.6,55,0.00,,,0.00,WUHU216HW,2013-04-21 04:51:00,
2013-04-20 23:56:00,53.3,37.9,30.08,ESE,122,0.7,1.6,56,0.00,,,0.00,WUHU216HW,2013-04-21 04:56:00,